Portland Troutdale, OR

9:32 AM PST on December 14, 2017 (GMT -0800)
Portland-Troutdale

Weather History for KTTD - April, 2014

Change the Weather History Date:

Tuesday, April 15, 2014

  Actual Average Record
Temperature  
Mean Temperature 54 °F 51 °F  
Max Temperature 60 °F 61 °F 86 °F (1990)
Min Temperature 47 °F 41 °F 34 °F (1967)
Degree Days  
Heating Degree Days 11 14  
Month to date heating degree days 162 218  
Cooling Degree Days 0 0  
Month to date cooling degree days 0 0  
Growing Degree Days 3 (Base 50)    
Moisture  
Dew Point 38 °F    
Average Humidity 55    
Maximum Humidity 71    
Minimum Humidity 39    
Precipitation  
Precipitation T in 0.13 in 0.75 in (1960)
Month to date precipitation 0.84 2.01  
Year to date precipitation 12.46 17.92  
Sea Level Pressure  
Sea Level Pressure 30.20 in    
Wind  
Wind Speed 5 mph (WSW)    
Max Wind Speed 10 mph    
Max Gust Speed 13 mph    
Visibility 10 miles    
Events      
T = Trace of Precipitation, MM = Missing Value Source: NWS Daily Summary

Daily Weather History Graph

Daily Weather History Graph

Search for Another Location

Airport or City:

Trip Planner

Search our weather history database for the weather conditions in past years. The results will help you decide how hot, cold, wet, or windy it might be!

Date:

Astronomy

Apr. 15, 2014 Rise Set
Actual Time 6:23 AM PDT 7:56 PM PDT
Civil Twilight 5:52 AM PDT 8:27 PM PDT
Nautical Twilight 5:15 AM PDT 9:04 PM PDT
Astronomical Twilight 4:35 AM PDT 9:45 PM PDT
Moon 8:45 PM PDT (4/15) 6:34 AM PDT (4/15)
Length of Visible Light 14h 34m
Length of Day
13h 32m
Full, 100% of the Moon is Illuminated
Apr 15
Full
Apr 22
Last Quarter
Apr 28
New
May 6
First Quarter
May 14
Full

Hourly Weather History & Observations

Time (PDT) Temp. Dew Point Humidity Pressure Visibility Wind Dir Wind Speed Gust Speed Precip Events Conditions
12:53 AM 48.9 °F 37.9 °F 66% 30.24 in 10.0 mi West 3.5 mph - N/A   Mostly Cloudy
1:53 AM 48.9 °F 37.9 °F 66% 30.23 in 10.0 mi WSW 4.6 mph - N/A   Partly Cloudy
3:53 AM 46.9 °F 37.9 °F 71% 30.22 in 10.0 mi WSW 3.5 mph - N/A   Overcast
4:53 AM 48.9 °F 37.9 °F 66% 30.22 in 10.0 mi WSW 4.6 mph - N/A   Overcast
5:53 AM 48.9 °F 39.0 °F 69% 30.23 in 10.0 mi WSW 5.8 mph - N/A   Overcast
6:53 AM 50.0 °F 37.0 °F 61% 30.23 in 10.0 mi West 5.8 mph - N/A   Overcast
7:53 AM 50.0 °F 37.9 °F 63% 30.24 in 10.0 mi Variable 3.5 mph - N/A   Overcast
8:53 AM 50.0 °F 39.9 °F 68% 30.24 in 10.0 mi NNW 6.9 mph - 0.00 in   Overcast
9:53 AM 53.1 °F 41.0 °F 64% 30.25 in 10.0 mi Calm Calm - 0.00 in   Mostly Cloudy
10:53 AM 52.0 °F 37.9 °F 59% 30.26 in 10.0 mi West 6.9 mph - N/A   Overcast
11:53 AM 54.0 °F 37.9 °F 55% 30.25 in 10.0 mi West 5.8 mph - N/A   Overcast
12:53 PM 55.0 °F 37.9 °F 53% 30.25 in 10.0 mi NW 5.8 mph - N/A   Overcast
1:53 PM 55.0 °F 37.9 °F 53% 30.23 in 10.0 mi SSW 8.1 mph - N/A   Overcast
2:53 PM 55.9 °F 37.9 °F 51% 30.21 in 10.0 mi WSW 8.1 mph - N/A   Mostly Cloudy
3:53 PM 57.9 °F 37.9 °F 47% 30.19 in 10.0 mi Variable 3.5 mph - N/A   Mostly Cloudy
4:53 PM 59.0 °F 37.0 °F 44% 30.17 in 10.0 mi SSW 4.6 mph - N/A   Mostly Cloudy
5:53 PM 60.1 °F 35.1 °F 39% 30.16 in 10.0 mi Variable 4.6 mph - N/A   Clear
6:53 PM 57.9 °F 37.0 °F 46% 30.14 in 10.0 mi SSW 9.2 mph - N/A   Partly Cloudy
7:53 PM 57.0 °F 37.9 °F 49% 30.12 in 10.0 mi SW 6.9 mph - N/A   Partly Cloudy
8:53 PM 55.0 °F 39.0 °F 55% 30.13 in 10.0 mi SW 5.8 mph - N/A   Partly Cloudy
9:53 PM 55.0 °F 39.9 °F 57% 30.13 in 10.0 mi SW 5.8 mph - N/A   Overcast
10:53 PM 54.0 °F 41.0 °F 62% 30.13 in 10.0 mi SW 5.8 mph - N/A   Overcast
11:53 PM 54.0 °F 41.0 °F 62% 30.13 in 10.0 mi Calm Calm - N/A   Overcast